Weather History for CYIV - February, 2013

Change the Weather History Date:

Friday, February 15, 2013

  Actual Average Record
Temperature  
Mean Temperature -11 °F -  
Max Temperature 0 °F 15 °F 37 °F (2011)
Min Temperature -22 °F -4 °F -34 °F (2003)
Degree Days  
Heating Degree Days 76    
Moisture  
Dew Point -19 °F    
Average Humidity 71    
Maximum Humidity 84    
Minimum Humidity 57    
Precipitation  
Precipitation 0.00 in 0.03 in - ()
Sea Level Pressure  
Sea Level Pressure 30.32 in    
Wind  
Wind Speed 3 mph ()    
Max Wind Speed 7 mph    
Max Gust Speed -    
Visibility 15.0 miles    
Events      
Averages and records for this station are not official NWS values.
T = Trace of Precipitation, MM = Missing Value Source: Averaged Metar Reports

Daily Weather History Graph

Daily Weather History Graph

Search for Another Location

Airport or City:

Trip Planner

Search our weather history database for the weather conditions in past years. The results will help you decide how hot, cold, wet, or windy it might be!

Date:

Astronomy

Feb. 15, 2013 Rise Set
Actual Time 7:37 AM CST 5:28 PM CST
Civil Twilight 7:00 AM CST 6:05 PM CST
Nautical Twilight 6:19 AM CST 6:46 PM CST
Astronomical Twilight 5:38 AM CST 7:27 PM CST
Moon 9:16 AM CST (2/15) No Moon Set
Length of Visible Light 11h 04m
Length of Day
9h 51m
Waxing Crescent, 30% of the Moon is Illuminated
Feb 15
Waxing Crescent
Feb 17
First Quarter
Feb 25
Full
Mar 4
Last Quarter
Mar 11
New

Hourly Weather History & Observations

Time (CST) Temp. Windchill Dew Point Humidity Pressure Visibility Wind Dir Wind Speed Gust Speed Precip Events Conditions
12:00 AM -8 °F - -14 °F 65% 30.26 in 15 mi NW 2.3 mph - -   Partly Cloudy
12:00 AM -7.6 °F - -13.0 °F 77% 30.26 in 15.0 mi WNW 2.3 mph - N/A   Partly Cloudy
1:00 AM -13.0 °F -22.7 °F -16.6 °F 84% 30.27 in 15.0 mi NW 3.5 mph - N/A   Partly Cloudy
2:00 AM -11.2 °F - -16.6 °F 77% 30.27 in 15.0 mi NW 2.3 mph - N/A   Scattered Clouds
3:00 AM -11.2 °F -23.0 °F -16.6 °F 77% 30.29 in 15.0 mi West 4.6 mph - N/A   Mostly Cloudy
4:00 AM -13.0 °F -22.7 °F -20.2 °F 70% 30.30 in 15.0 mi NW 3.5 mph - N/A   Scattered Clouds
5:00 AM -16.6 °F -26.8 °F -22.0 °F 76% 30.32 in 15.0 mi WNW 3.5 mph - N/A   Partly Cloudy
6:00 AM -17 °F - -24 °F 57% 30.33 in 15 mi West 4.6 mph - -   Scattered Clouds
6:00 AM -16.6 °F -29.3 °F -23.8 °F 70% 30.33 in 15.0 mi West 4.6 mph - N/A   Partly Cloudy
7:00 AM -20.2 °F -33.5 °F -25.6 °F 76% 30.34 in 15.0 mi West 4.6 mph - N/A   Partly Cloudy
8:00 AM -18.4 °F -28.9 °F -23.8 °F 76% 30.34 in 15.0 mi WNW 3.5 mph - N/A   Partly Cloudy
9:00 AM -18.4 °F -31.4 °F -23.8 °F 76% 30.36 in 15.0 mi West 4.6 mph - N/A   Partly Cloudy
10:00 AM -14.8 °F -30.8 °F -20.2 °F 77% 30.37 in 15.0 mi West 6.9 mph - N/A   Partly Cloudy
11:00 AM -11.2 °F -23.0 °F -18.4 °F 70% 30.37 in 15.0 mi West 4.6 mph - N/A   Partly Cloudy
12:00 PM -8 °F - -14 °F 62% 30.37 in 15 mi West 4.6 mph - -   Scattered Clouds
12:00 PM -7.6 °F -18.8 °F -14.8 °F 71% 30.37 in 15.0 mi WNW 4.6 mph - N/A   Partly Cloudy
1:00 PM -4.0 °F -12.4 °F -11.2 °F 71% 30.36 in 15.0 mi West 3.5 mph - N/A   Partly Cloudy
2:00 PM -2.2 °F -14.2 °F -11.2 °F 66% 30.35 in 15.0 mi West 5.8 mph - N/A   Partly Cloudy
3:00 PM -0.4 °F -12.0 °F -11.2 °F 60% 30.33 in 15.0 mi West 5.8 mph - N/A   Partly Cloudy
4:00 PM -2.2 °F -10.4 °F -11.2 °F 66% 30.33 in 15.0 mi WNW 3.5 mph - N/A   Partly Cloudy
5:00 PM -4.0 °F -12.4 °F -13.0 °F 65% 30.33 in 15.0 mi WNW 3.5 mph - N/A   Clear
6:00 PM -10 °F - -16 °F 65% 30.33 in 15 mi Calm Calm - -  
6:00 PM -9.4 °F - -14.8 °F 77% 30.33 in 15.0 mi Calm Calm - N/A   Clear
7:00 PM -13.0 °F - -18.4 °F 77% 30.32 in 15.0 mi Calm Calm - N/A   Clear
8:00 PM -18.4 °F - -23.8 °F 76% 30.31 in 15.0 mi SE 2.3 mph - N/A   Clear
9:00 PM -20.2 °F - -27.4 °F 69% 30.30 in 15.0 mi SE 2.3 mph - N/A   Clear
10:00 PM -22.0 °F -35.6 °F -27.4 °F 76% 30.29 in 15.0 mi SE 4.6 mph - N/A   Clear
11:00 PM -22.0 °F -37.7 °F -29.2 °F 69% 30.27 in 15.0 mi SE 5.8 mph - N/A   Clear